Home   Weather   Santa Cruz   Past weeks

Flag for Bolivia Past Weather in Santa Cruz, Bolivia — Yesterday and Last 2 Weeks

Now
66 °F

Clear.


Feels Like: 66 °F
Forecast: 61 / 81 °F
Wind: 7 mph from South

Location: Viru-Viru

Current Time: Apr 30, 2017 at 1:29:04 am

Latest Report: Apr 30, 2017 at 1:00 am


Visibility: N/A

Pressure: 30.09 "Hg

Humidity: 73%

Dew Point: 57 °F

Location of Santa CruzLocation

Past Weather in Santa Cruz — Graph

°F

Santa Cruz Temperature Yesterday

Maximum temperature yesterday: 81 °F (at 2:00 pm)
Minimum temperature yesterday: 63 °F (at 1:00 am)
Average temperature yesterday: 70 °F

High & Low Weather Summary for the Past Weeks

 TemperatureHumidityPressure
High90 °F (Apr 15, 12:00 pm)100% (Apr 15, 5:00 am)30.18 "Hg (Apr 15, 5:00 am)
Low55 °F (Apr 28, 6:00 am)40% (Apr 27, 12:00 pm)29.65 "Hg (Apr 25, 7:00 pm)
Average71 °F84%29.95 "Hg
* Reported Apr 15 12:00 am — Apr 30 12:00 am, Santa Cruz, Weather by CustomWeather, © 2017

Note: Actual official high and low records may vary slightly from our data, if they occured in-between our weather recording intervals... More about our weather records

Advertising

Santa Cruz Weather History for the Previous 24 Hours

Scroll right to see more
 ConditionsComfort  
Time TempWeatherWind HumidityBarometerVisibility
12:00 am
Sun, Apr 30
64 °FClear.6 mph78%30.09 "HgN/A
11:00 pm
Sat, Apr 29
64 °FClear.7 mph83%30.09 "HgN/A
10:00 pm66 °FClear.6 mph78%30.09 "HgN/A
9:00 pm66 °FClear.6 mph83%30.07 "HgN/A
8:00 pm68 °FClear.7 mph78%30.07 "HgN/A
7:00 pm70 °FPassing clouds.5 mph73%30.04 "HgN/A
6:00 pm73 °FPassing clouds.3 mph69%30.04 "HgN/A
5:00 pm79 °FScattered clouds.7 mph48%30.01 "HgN/A
4:00 pm79 °FScattered clouds.7 mph45%30.01 "HgN/A
3:00 pm79 °FBroken clouds.9 mph45%30.01 "HgN/A
2:00 pm81 °FClear.10 mph45%30.04 "HgN/A
1:00 pm79 °FScattered clouds.10 mph48%30.07 "HgN/A
12:00 pm77 °FPassing clouds.12 mph47%30.09 "HgN/A
11:00 am77 °FClear.9 mph51%30.12 "HgN/A
10:00 am75 °FScattered clouds.12 mph54%30.12 "HgN/A
9:00 am72 °FScattered clouds.9 mph57%30.12 "HgN/A
8:00 am66 °FPartly sunny.7 mph73%30.12 "HgN/A
7:00 am64 °FPartly sunny.6 mph78%30.09 "HgN/A
6:00 am64 °FPassing clouds.6 mph78%30.09 "HgN/A
5:00 am64 °FPassing clouds.6 mph78%30.07 "HgN/A
4:00 am64 °FPassing clouds.7 mph73%30.07 "HgN/A
3:00 am64 °FPassing clouds.7 mph78%30.07 "HgN/A
2:00 am63 °FPassing clouds.6 mph73%30.09 "HgN/A
1:00 am63 °FClear.6 mph77%30.09 "HgN/A
Weather by CustomWeather, © 2017

See weather overviewHow to use our weather pages